Location: Unspecified
(0.0000°N, 0.0000°E)
Time: 14:49:07
(UTC+00:00)

Hubble Space Telescope - Pass Details

Date: 17 April 2021
Orbit: 535 x 539 km, 28.5° (Epoch: 16 April)

Event Time Altitude Azimuth Distance (km) Brightness Sun altitude
Exits shadow 04:16:42 17° 360° (N) 1,370 2.9 -25.3°
Maximum altitude 04:18:11 21° 29° (NNE) 1,230 3.0 -24.9°
Drops below altitude 10° 04:21:18 10° 79° (ENE) 1,774 4.5 -24.1°
Sets 04:23:59 0° 95° (E) 2,667 5.6 -23.5°
